Time,TemperatureF,DewpointF,PressureIn,WindDirection,WindDirectionDegrees,WindSpeedMPH,WindSpeedGustMPH,Humidity,HourlyPrecipIn,Conditions,Clouds,dailyrainin,SoftwareType,DateUTC
2013-06-23 00:02:00,48.0,45.0,-100.00,West,280,8.0,11.0,90,0.00,,,-99.99,,2013-06-23 06:02:00,
2013-06-23 00:12:00,48.0,45.0,-100.00,WNW,295,7.0,9.0,89,0.00,,,-99.99,,2013-06-23 06:12:00,
2013-06-23 00:33:00,47.0,44.0,-100.00,WNW,290,6.0,9.0,92,0.00,,,-99.99,,2013-06-23 06:33:00,
2013-06-23 00:43:00,47.0,44.0,-100.00,West,280,7.0,9.0,92,0.00,,,-99.99,,2013-06-23 06:43:00,
2013-06-23 00:52:00,47.0,44.0,-100.00,WNW,295,7.0,10.0,90,0.00,,,-99.99,,2013-06-23 06:52:00,
2013-06-23 01:02:00,48.0,44.0,-100.00,SE,140,1.0,6.0,88,0.00,,,-99.99,,2013-06-23 07:02:00,
2013-06-23 01:12:00,48.0,44.0,-100.00,South,180,0.0,5.0,85,0.00,,,-99.99,,2013-06-23 07:12:00,
2013-06-23 01:34:00,45.0,42.0,-100.00,SW,225,4.0,6.0,89,0.00,,,-99.99,,2013-06-23 07:34:00,
2013-06-23 01:43:00,46.0,43.0,-100.00,NNW,340,1.0,9.0,86,0.00,,,-99.99,,2013-06-23 07:43:00,
2013-06-23 01:53:00,46.0,42.0,-100.00,NNE,15,0.0,4.0,88,0.00,,,-99.99,,2013-06-23 07:53:00,
2013-06-23 02:02:00,45.0,42.0,-100.00,West,280,1.0,4.0,90,0.00,,,-99.99,,2013-06-23 08:02:00,
2013-06-23 02:11:00,45.0,42.0,-100.00,WNW,295,2.0,3.0,89,0.00,,,-99.99,,2013-06-23 08:11:00,
2013-06-23 02:22:00,44.0,42.0,-100.00,West,260,1.0,4.0,92,0.00,,,-99.99,,2013-06-23 08:22:00,
2013-06-23 02:42:00,45.0,43.0,-100.00,SE,145,4.0,7.0,92,0.00,,,-99.99,,2013-06-23 08:42:00,
2013-06-23 03:02:00,48.0,45.0,-100.00,SSW,200,6.0,7.0,89,0.00,,,-99.99,,2013-06-23 09:02:00,
2013-06-23 03:12:00,48.0,44.0,-100.00,SW,230,4.0,6.0,84,0.00,,,-99.99,,2013-06-23 09:12:00,
2013-06-23 03:34:00,42.0,40.0,-100.00,West,270,3.0,4.0,92,0.00,,,-99.99,,2013-06-23 09:34:00,
2013-06-23 03:43:00,44.0,42.0,-100.00,SW,235,5.0,6.0,93,0.00,,,-99.99,,2013-06-23 09:43:00,
2013-06-23 04:11:00,41.0,39.0,-100.00,NW,305,4.0,4.0,92,0.00,,,-99.99,,2013-06-23 10:11:00,
2013-06-23 04:34:00,43.0,42.0,-100.00,WSW,240,2.0,4.0,94,0.00,,,-99.99,,2013-06-23 10:34:00,
2013-06-23 04:43:00,42.0,39.0,-100.00,NW,310,5.0,6.0,90,0.00,,,-99.99,,2013-06-23 10:43:00,
2013-06-23 05:01:00,42.0,39.0,-100.00,WNW,300,3.0,4.0,87,0.00,,,-99.99,,2013-06-23 11:01:00,
2013-06-23 05:33:00,41.0,39.0,-100.00,NNW,345,4.0,4.0,91,0.00,,,-99.99,,2013-06-23 11:33:00,
2013-06-23 05:43:00,41.0,39.0,-100.00,West,265,2.0,5.0,91,0.00,,,-99.99,,2013-06-23 11:43:00,
2013-06-23 05:53:00,42.0,40.0,-100.00,West,260,3.0,4.0,91,0.00,,,-99.99,,2013-06-23 11:53:00,
2013-06-23 06:01:00,42.0,39.0,-100.00,NNW,330,2.0,3.0,89,0.00,,,-99.99,,2013-06-23 12:01:00,
2013-06-23 06:42:00,44.0,41.0,-100.00,South,170,0.0,3.0,90,0.00,,,-99.99,,2013-06-23 12:42:00,
2013-06-23 07:01:00,48.0,44.0,-100.00,SE,145,6.0,6.0,86,0.00,,,-99.99,,2013-06-23 13:01:00,
2013-06-23 07:11:00,48.0,44.0,-100.00,NE,50,1.0,5.0,84,0.00,,,-99.99,,2013-06-23 13:11:00,
2013-06-23 07:43:00,52.0,45.0,-100.00,ENE,75,3.0,4.0,78,0.00,,,-99.99,,2013-06-23 13:43:00,
2013-06-23 08:44:00,58.0,44.0,-100.00,East,100,4.0,5.0,59,0.00,,,-99.99,,2013-06-23 14:44:00,
2013-06-23 08:52:00,60.0,43.0,-100.00,ESE,120,3.0,4.0,53,0.00,,,-99.99,,2013-06-23 14:52:00,
2013-06-23 09:05:00,59.0,43.0,-100.00,East,100,4.0,7.0,54,0.00,,,-99.99,,2013-06-23 15:05:00,
2013-06-23 09:22:00,60.0,39.0,-100.00,SSE,150,5.0,8.0,46,0.00,,,-99.99,,2013-06-23 15:22:00,
2013-06-23 09:35:00,60.0,41.0,-100.00,ESE,115,6.0,9.0,49,0.00,,,-99.99,,2013-06-23 15:35:00,
2013-06-23 09:43:00,60.0,41.0,-100.00,SE,135,5.0,7.0,49,0.00,,,-99.99,,2013-06-23 15:43:00,
2013-06-23 09:52:00,60.0,42.0,-100.00,SE,125,5.0,8.0,50,0.00,,,-99.99,,2013-06-23 15:52:00,
2013-06-23 10:42:00,63.0,43.0,-100.00,ESE,120,6.0,9.0,47,0.00,,,-99.99,,2013-06-23 16:42:00,
2013-06-23 11:03:00,63.0,44.0,-100.00,SSE,165,6.0,11.0,47,0.00,,,-99.99,,2013-06-23 17:03:00,
2013-06-23 11:11:00,63.0,43.0,-100.00,ESE,120,9.0,12.0,48,0.00,,,-99.99,,2013-06-23 17:11:00,
2013-06-23 11:22:00,63.0,42.0,-100.00,SE,135,7.0,11.0,46,0.00,,,-99.99,,2013-06-23 17:22:00,
2013-06-23 11:43:00,63.0,43.0,-100.00,SE,135,8.0,12.0,47,0.00,,,-99.99,,2013-06-23 17:43:00,
2013-06-23 11:52:00,64.0,43.0,-100.00,SE,145,6.0,8.0,45,0.00,,,-99.99,,2013-06-23 17:52:00,
2013-06-23 12:01:00,64.0,43.0,-100.00,SE,140,9.0,11.0,47,0.00,,,-99.99,,2013-06-23 18:01:00,
2013-06-23 12:11:00,65.0,44.0,-100.00,SE,135,6.0,9.0,46,0.00,,,-99.99,,2013-06-23 18:11:00,
2013-06-23 12:22:00,64.0,44.0,-100.00,SE,125,6.0,9.0,48,0.00,,,-99.99,,2013-06-23 18:22:00,
2013-06-23 12:42:00,65.0,45.0,-100.00,NE,45,6.0,11.0,47,0.00,,,-99.99,,2013-06-23 18:42:00,
2013-06-23 12:53:00,65.0,44.0,-100.00,East,80,4.0,15.0,45,0.00,,,-99.99,,2013-06-23 18:53:00,
2013-06-23 13:01:00,65.0,43.0,-100.00,ENE,65,4.0,10.0,44,0.00,,,-99.99,,2013-06-23 19:01:00,
2013-06-23 13:11:00,66.0,43.0,-100.00,ESE,120,2.0,11.0,43,0.00,,,-99.99,,2013-06-23 19:11:00,
2013-06-23 13:43:00,66.0,45.0,-100.00,NNE,30,5.0,7.0,46,0.00,,,-99.99,,2013-06-23 19:43:00,
2013-06-23 13:53:00,67.0,45.0,-100.00,SW,215,1.0,9.0,45,0.00,,,-99.99,,2013-06-23 19:53:00,
2013-06-23 14:02:00,67.0,46.0,-100.00,ENE,65,4.0,9.0,46,0.00,,,-99.99,,2013-06-23 20:02:00,
2013-06-23 14:12:00,68.0,45.0,-100.00,SSW,205,1.0,9.0,43,0.00,,,-99.99,,2013-06-23 20:12:00,
2013-06-23 14:42:00,68.0,47.0,-100.00,NNE,15,6.0,9.0,46,0.00,,,-99.99,,2013-06-23 20:42:00,
2013-06-23 14:52:00,69.0,45.0,-100.00,NNW,335,1.0,7.0,42,0.00,,,-99.99,,2013-06-23 20:52:00,
2013-06-23 15:01:00,69.0,45.0,-100.00,ENE,65,4.0,10.0,42,0.00,,,-99.99,,2013-06-23 21:01:00,
2013-06-23 15:11:00,69.0,46.0,-100.00,WSW,255,2.0,7.0,43,0.00,,,-99.99,,2013-06-23 21:11:00,
2013-06-23 15:44:00,70.0,45.0,-100.00,East,90,4.0,11.0,40,0.00,,,-99.99,,2013-06-23 21:44:00,
2013-06-23 15:52:00,70.0,47.0,-100.00,NE,55,4.0,11.0,42,0.00,,,-99.99,,2013-06-23 21:52:00,
2013-06-23 16:01:00,71.0,45.0,-100.00,NE,50,4.0,8.0,40,0.00,,,-99.99,,2013-06-23 22:01:00,
2013-06-23 16:11:00,72.0,44.0,-100.00,ENE,75,2.0,6.0,36,0.00,,,-99.99,,2013-06-23 22:11:00,
2013-06-23 16:32:00,72.0,45.0,-100.00,NW,320,3.0,7.0,38,0.00,,,-99.99,,2013-06-23 22:32:00,
2013-06-23 16:43:00,72.0,44.0,-100.00,North,0,4.0,8.0,37,0.00,,,-99.99,,2013-06-23 22:43:00,
2013-06-23 17:01:00,71.0,44.0,-100.00,NE,35,7.0,11.0,37,0.00,,,-99.99,,2013-06-23 23:01:00,
2013-06-23 17:11:00,71.0,44.0,-100.00,North,0,7.0,12.0,37,0.00,,,-99.99,,2013-06-23 23:11:00,
2013-06-23 17:44:00,72.0,44.0,-100.00,NE,50,5.0,10.0,36,0.00,,,-99.99,,2013-06-23 23:44:00,
2013-06-23 17:52:00,73.0,45.0,-100.00,North,0,4.0,9.0,36,0.00,,,-99.99,,2013-06-23 23:52:00,
2013-06-23 18:11:00,71.0,44.0,-100.00,North,0,2.0,9.0,36,0.00,,,-99.99,,2013-06-24 00:11:00,
2013-06-23 18:33:00,69.0,46.0,-100.00,NNE,20,4.0,7.0,42,0.00,,,-99.99,,2013-06-24 00:33:00,
2013-06-23 18:42:00,69.0,46.0,-100.00,NE,40,3.0,6.0,43,0.00,,,-99.99,,2013-06-24 00:42:00,
2013-06-23 18:52:00,70.0,48.0,-100.00,NNE,30,1.0,4.0,45,0.00,,,-99.99,,2013-06-24 00:52:00,
2013-06-23 19:01:00,70.0,49.0,-100.00,NE,45,1.0,4.0,46,0.00,,,-99.99,,2013-06-24 01:01:00,
2013-06-23 19:11:00,70.0,46.0,-100.00,NNE,20,2.0,4.0,42,0.00,,,-99.99,,2013-06-24 01:11:00,
2013-06-23 19:32:00,69.0,48.0,-100.00,East,100,2.0,4.0,46,0.00,,,-99.99,,2013-06-24 01:32:00,
2013-06-23 19:42:00,69.0,48.0,-100.00,ENE,70,2.0,4.0,47,0.00,,,-99.99,,2013-06-24 01:42:00,
2013-06-23 20:02:00,69.0,49.0,-100.00,NE,40,3.0,4.0,49,0.00,,,-99.99,,2013-06-24 02:02:00,
2013-06-23 20:11:00,68.0,48.0,-100.00,NNE,30,2.0,4.0,49,0.00,,,-99.99,,2013-06-24 02:11:00,
2013-06-23 20:33:00,67.0,47.0,-100.00,North,0,1.0,3.0,48,0.00,,,-99.99,,2013-06-24 02:33:00,
2013-06-23 20:42:00,66.0,49.0,-100.00,West,265,2.0,4.0,54,0.00,,,-99.99,,2013-06-24 02:42:00,
2013-06-23 20:53:00,65.0,48.0,-100.00,West,265,4.0,6.0,53,0.00,,,-99.99,,2013-06-24 02:53:00,
2013-06-23 21:01:00,64.0,50.0,-100.00,West,265,4.0,6.0,61,0.00,,,-99.99,,2013-06-24 03:01:00,
2013-06-23 21:11:00,60.0,52.0,-100.00,NW,315,7.0,9.0,74,0.00,,,-99.99,,2013-06-24 03:11:00,
2013-06-23 21:43:00,58.0,50.0,-100.00,NW,305,7.0,10.0,72,0.00,,,-99.99,,2013-06-24 03:43:00,
2013-06-23 22:02:00,58.0,49.0,-100.00,West,270,9.0,11.0,71,0.00,,,-99.99,,2013-06-24 04:02:00,
2013-06-23 22:12:00,58.0,48.0,-100.00,WNW,285,6.0,10.0,69,0.00,,,-99.99,,2013-06-24 04:12:00,
2013-06-23 22:22:00,58.0,48.0,-100.00,West,275,7.0,9.0,68,0.00,,,-99.99,,2013-06-24 04:22:00,
2013-06-23 22:33:00,59.0,47.0,-100.00,West,280,7.0,10.0,65,0.00,,,-99.99,,2013-06-24 04:33:00,
2013-06-23 22:43:00,58.0,47.0,-100.00,WNW,290,7.0,9.0,67,0.00,,,-99.99,,2013-06-24 04:43:00,
2013-06-23 22:52:00,58.0,46.0,-100.00,WNW,285,7.0,9.0,64,0.00,,,-99.99,,2013-06-24 04:52:00,
2013-06-23 23:02:00,59.0,46.0,-100.00,WNW,285,7.0,9.0,62,0.00,,,-99.99,,2013-06-24 05:02:00,
2013-06-23 23:12:00,57.0,46.0,-100.00,WNW,285,9.0,11.0,67,0.00,,,-99.99,,2013-06-24 05:12:00,
2013-06-23 23:22:00,57.0,46.0,-100.00,WNW,285,8.0,11.0,65,0.00,,,-99.99,,2013-06-24 05:22:00,
2013-06-23 23:35:00,57.0,46.0,-100.00,WNW,285,9.0,11.0,67,0.00,,,-99.99,,2013-06-24 05:35:00,
2013-06-23 23:44:00,57.0,46.0,-100.00,WNW,285,7.0,11.0,68,0.00,,,-99.99,,2013-06-24 05:44:00,
2013-06-23 23:53:00,56.0,46.0,-100.00,WNW,295,7.0,9.0,67,0.00,,,-99.99,,2013-06-24 05:53:00,